This demonstration page uses our WeatherBlox Daily Observations layout. Learn more.

Left ArrowRight Arrow

Hourly Observations for June 17, 2022

Temp ( °F °C ) Dew Point ( °F °C ) Humidity (%) Winds ( mph kmh ) Pressure ( in mb ) Visibility ( mi km ) Precip ( " mm )
12:15 am 00:15 Clear 75 24 73 23 94 94 S 3 6 29.94 1014 10 16 0.00 0.00
12:35 am 00:35 Mostly Cloudy 75 24 73 23 94 94 S 7 11 29.92 1013 10 16 0.00 0.00
12:55 am 00:55 Mostly Cloudy 75 24 72 22 89 89 Calm 29.90 1012 10 16 0.00 0.00
1:15 am 01:15 Clear 73 23 72 22 94 94 NW 6 9 29.92 1013 10 16 0.00 0.00
1:35 am 01:35 Clear 73 23 72 22 94 94 Calm 29.92 1013 10 16 0.00 0.00
1:55 am 01:55 Clear 73 23 72 22 94 94 SSW 3 6 29.91 1013 10 16 0.00 0.00
2:15 am 02:15 Clear 73 23 72 22 94 94 SW 7 11 29.91 1013 10 16 0.00 0.00
2:35 am 02:35 Clear 73 23 72 22 94 94 WSW 6 9 29.90 1012 10 16 0.00 0.00
2:55 am 02:55 Clear 73 23 72 22 94 94 WSW 6 9 29.89 1012 10 16 0.00 0.00
3:15 am 03:15 Clear 73 23 72 22 94 94 SW 6 9 29.89 1012 10 16 0.00 0.00
3:35 am 03:35 Clear 72 22 70 21 94 94 Calm 29.88 1012 10 16 0.00 0.00
3:55 am 03:55 Clear 72 22 70 21 94 94 SSW 5 7 29.87 1011 10 16 0.00 0.00
4:15 am 04:15 Clear 72 22 70 21 94 94 S 3 6 29.87 1011 10 16 0.00 0.00
4:35 am 04:35 Clear 72 22 70 21 94 94 S 6 9 29.87 1011 10 16 0.00 0.00
4:55 am 04:55 Clear 72 22 70 21 94 94 SSW 6 9 29.87 1011 10 16 0.00 0.00
5:15 am 05:15 Clear 72 22 70 21 94 94 SW 5 7 29.87 1011 10 16 0.00 0.00
5:35 am 05:35 Clear 72 22 70 21 94 94 Calm 29.87 1011 10 16 0.00 0.00
5:55 am 05:55 Sunny 70 21 70 21 100 100 WSW 3 6 29.87 1012 10 16 0.00 0.00
6:15 am 06:15 Sunny 70 21 70 21 100 100 Calm 29.86 1011 10 16 0.00 0.00
6:35 am 06:35 Sunny 72 22 70 21 94 94 W 5 7 29.86 1011 10 16 0.00 0.00
6:55 am 06:55 Sunny 77 25 72 22 83 83 WNW 8 13 29.84 1011 10 16 0.00 0.00
7:15 am 07:15 Sunny 79 26 72 22 79 79 W 3 6 29.83 1010 10 16 0.00 0.00
7:35 am 07:35 Sunny 81 27 72 22 74 74 Calm 29.83 1010 10 16 0.00 0.00
7:55 am 07:55 Sunny 82 28 72 22 70 70 SW 6 9 29.83 1010 10 16 0.00 0.00
8:15 am 08:15 Sunny 82 28 72 22 70 70 WSW 6 9 29.83 1010 10 16 0.00 0.00
8:35 am 08:35 Sunny 84 29 73 23 70 70 SW 8 13 29.83 1010 10 16 0.00 0.00
8:55 am 08:55 Sunny 86 30 72 22 62 62 WSW 8 13 29.83 1010 10 16 0.00 0.00
9:15 am 09:15 Sunny 86 30 73 23 66 66 WSW 7 11 29.83 1010 10 16 0.00 0.00
9:35 am 09:35 Sunny 88 31 73 23 62 62 WSW 5 7 29.83 1010 10 16 0.00 0.00
9:55 am 09:55 Sunny 88 31 73 23 62 62 W 6 9 29.82 1010 10 16 0.00 0.00
10:15 am 10:15 Sunny 88 31 73 23 62 62 W 7 11 29.81 1009 10 16 0.00 0.00
10:35 am 10:35 Sunny 90 32 73 23 59 59 W 10 17 29.82 1010 10 16 0.00 0.00
10:55 am 10:55 Sunny 90 32 75 24 63 63 WNW 8 13 29.82 1010 10 16 0.00 0.00
11:15 am 11:15 Partly Cloudy 90 32 73 23 59 59 WNW 10 17 29.82 1010 10 16 0.00 0.00
11:35 am 11:35 Partly Cloudy 91 33 72 22 52 52 WNW 14 22 29.80 1009 10 16 0.00 0.00
11:55 am 11:55 Sunny 91 33 72 22 52 52 WNW 14 22 29.80 1009 10 16 0.00 0.00
12:15 pm 12:15 Sunny 91 33 72 22 52 52 WNW 16 26 29.80 1009 10 16 0.00 0.00
12:35 pm 12:35 Sunny 91 33 72 22 52 52 NW 20 31 29.79 1009 10 16 0.00 0.00
12:55 pm 12:55 Partly Cloudy 91 33 72 22 52 52 WNW 21 33 29.78 1009 10 16 0.00 0.00
1:15 pm 13:15 Partly Cloudy 91 33 70 21 49 49 WNW 10 17 29.78 1009 10 16 0.00 0.00
1:35 pm 13:35 Partly Cloudy 93 34 72 22 49 49 W 16 26 29.77 1008 10 16 0.00 0.00
1:55 pm 13:55 Mostly Cloudy 91 33 72 22 52 52 W 14 22 29.76 1008 10 16 0.00 0.00
2:15 pm 14:15 Partly Cloudy 91 33 72 22 52 52 NW 15 24 29.74 1007 10 16 0.00 0.00
2:35 pm 14:35 Partly Cloudy 91 33 70 21 49 49 WNW 12 19 29.74 1007 10 16 0.00 0.00
2:55 pm 14:55 Partly Cloudy 91 33 70 21 49 49 WNW 9 15 29.72 1007 10 16 0.00 0.00
3:15 pm 15:15 Partly Cloudy 93 34 72 22 49 49 W 12 19 29.72 1007 10 16 0.00 0.00
3:35 pm 15:35 Partly Cloudy 91 33 70 21 49 49 WNW 16 26 29.71 1006 10 16 0.00 0.00
3:55 pm 15:55 Partly Cloudy 93 34 70 21 47 47 NW 9 15 29.72 1007 10 16 0.00 0.00
4:15 pm 16:15 Sunny 93 34 68 20 44 44 NW 20 31 29.72 1007 10 16 0.00 0.00
4:35 pm 16:35 Sunny 91 33 66 19 44 44 NW 17 28 29.72 1007 10 16 0.00 0.00
4:55 pm 16:55 Sunny 91 33 64 18 41 41 NW 15 24 29.71 1006 10 16 0.00 0.00
5:15 pm 17:15 Sunny 91 33 66 19 44 44 WNW 16 26 29.71 1006 N/A 0.00 0.00
5:35 pm 17:35 Sunny 91 33 68 20 46 46 WNW 13 20 29.72 1007 N/A 0.00 0.00
5:55 pm 17:55 Sunny 90 32 63 17 41 41 NW 16 26 29.72 1006 10 16 0.00 0.00
6:15 pm 18:15 Partly Cloudy 90 32 63 17 41 41 NW 14 22 29.71 1006 10 16 0.00 0.00
6:35 pm 18:35 Sunny 90 32 63 17 41 41 NNW 10 17 29.72 1006 10 16 0.00 0.00
6:55 pm 18:55 Sunny 88 31 63 17 43 43 NW 14 22 29.72 1006 10 16 0.00 0.00
7:15 pm 19:15 Sunny 88 31 63 17 43 43 WNW 13 20 29.71 1006 10 16 0.00 0.00
7:35 pm 19:35 Sunny 88 31 61 16 40 40 NW 14 22 29.71 1006 10 16 0.00 0.00
7:55 pm 19:55 Sunny 86 30 61 16 43 43 NNW 9 15 29.71 1006 10 16 0.00 0.00
8:15 pm 20:15 Sunny 86 30 59 15 40 40 NNW 12 19 29.71 1006 10 16 0.00 0.00
8:35 pm 20:35 Sunny 84 29 57 14 40 40 NNW 9 15 29.71 1006 10 16 0.00 0.00
8:55 pm 20:55 Clear 82 28 55 13 40 40 NNW 7 11 29.71 1006 10 16 0.00 0.00
9:15 pm 21:15 Clear 82 28 55 13 40 40 NNW 10 17 29.71 1006 10 16 0.00 0.00
9:35 pm 21:35 Clear 81 27 55 13 42 42 N 10 17 29.72 1006 10 16 0.00 0.00
9:55 pm 21:55 Clear 81 27 57 14 45 45 N 8 13 29.74 1007 10 16 0.00 0.00
10:15 pm 22:15 Clear 81 27 57 14 45 45 N 7 11 29.75 1008 10 16 0.00 0.00
10:35 pm 22:35 Clear 79 26 57 14 48 48 NNW 10 17 29.75 1008 10 16 0.00 0.00
10:55 pm 22:55 Clear 77 25 55 13 47 47 NNW 12 19 29.75 1008 10 16 0.00 0.00
11:15 pm 23:15 Clear 77 25 55 13 47 47 N 8 13 29.75 1008 10 16 0.00 0.00
11:35 pm 23:35 Clear 75 24 55 13 50 50 NNW 8 13 29.76 1008 10 16 0.00 0.00
11:55 pm 23:55 Clear 75 24 55 13 50 50 NNW 7 11 29.77 1008 10 16 0.00 0.00

Powered by AerisWeather